Location: Lynch Observatory
(39.9540°N, 75.1861°W)
Time: 20:23:32
(UTC-04:00)

UWE-3 - Pass Details

Date: 02 May 2024
Orbit: 569 x 651 km, 97.8° (Epoch: 28 May)

Event Time Altitude Azimuth Distance (km) Brightness Sun altitude
Rises 02:43:47 0° 26° (NNE) 2,913 ? -29.3°
Reaches altitude 10° 02:46:19 10° 40° (NE) 2,015 ? -29.0°
Maximum altitude 02:49:56 25° 95° (E) 1,293 ? -28.7°
Enters shadow 02:50:02 25° 97° (E) 1,294 ? -28.6°
